Time,TemperatureF,DewpointF,PressureIn,WindDirection,WindDirectionDegrees,WindSpeedMPH,WindSpeedGustMPH,Humidity,HourlyPrecipIn,Conditions,Clouds,dailyrainin,SoftwareType,DateUTC
2013-01-28 00:00:00,22.0,12.0,30.47,SW,235,0.0,3.0,68,-99.99,,,-99.99,,2013-01-28 05:00:00,
2013-01-28 00:22:00,22.0,12.0,30.47,SW,235,0.0,3.0,68,-99.99,,,-99.99,,2013-01-28 05:22:00,
2013-01-28 00:32:00,22.0,12.0,30.47,SW,235,0.0,3.0,68,-99.99,,,-99.99,,2013-01-28 05:32:00,
2013-01-28 00:42:00,22.0,12.0,30.47,SW,235,0.0,3.0,68,-99.99,,,-99.99,,2013-01-28 05:42:00,
2013-01-28 00:52:00,22.0,12.0,30.47,SW,235,0.0,3.0,68,-99.99,,,-99.99,,2013-01-28 05:52:00,
2013-01-28 01:00:00,22.0,11.0,30.45,SE,142,0.0,0.0,66,-99.99,,,-99.99,,2013-01-28 06:00:00,
2013-01-28 01:22:00,22.0,11.0,30.45,SE,142,0.0,0.0,66,-99.99,,,-99.99,,2013-01-28 06:22:00,
2013-01-28 01:32:00,22.0,11.0,30.45,SE,142,0.0,0.0,66,-99.99,,,-99.99,,2013-01-28 06:32:00,
2013-01-28 01:42:00,22.0,11.0,30.45,SE,142,0.0,0.0,66,-99.99,,,-99.99,,2013-01-28 06:42:00,
2013-01-28 01:52:00,22.0,11.0,30.45,SE,142,0.0,0.0,66,-99.99,,,-99.99,,2013-01-28 06:52:00,
2013-01-28 02:00:00,23.0,14.0,30.45,ESE,119,0.0,0.0,70,-99.99,,,-99.99,,2013-01-28 07:00:00,
2013-01-28 02:22:00,23.0,14.0,30.45,ESE,119,0.0,0.0,70,-99.99,,,-99.99,,2013-01-28 07:22:00,
2013-01-28 02:32:00,23.0,14.0,30.45,ESE,119,0.0,0.0,70,-99.99,,,-99.99,,2013-01-28 07:32:00,
2013-01-28 02:42:00,23.0,14.0,30.45,ESE,119,0.0,0.0,70,-99.99,,,-99.99,,2013-01-28 07:42:00,
2013-01-28 02:52:00,23.0,14.0,30.45,ESE,119,0.0,0.0,70,-99.99,,,-99.99,,2013-01-28 07:52:00,
2013-01-28 03:00:00,22.0,13.0,30.42,NNE,15,0.0,0.0,70,-99.99,,,-99.99,,2013-01-28 08:00:00,
2013-01-28 03:21:00,22.0,13.0,30.42,NNE,15,0.0,0.0,70,-99.99,,,-99.99,,2013-01-28 08:21:00,
2013-01-28 03:32:00,22.0,13.0,30.42,NNE,15,0.0,0.0,70,-99.99,,,-99.99,,2013-01-28 08:32:00,
2013-01-28 03:42:00,22.0,13.0,30.42,NNE,15,0.0,0.0,70,-99.99,,,-99.99,,2013-01-28 08:42:00,
2013-01-28 03:52:00,22.0,13.0,30.42,NNE,15,0.0,0.0,70,-99.99,,,-99.99,,2013-01-28 08:52:00,
2013-01-28 04:00:00,23.0,15.0,30.42,East,94,0.0,0.0,74,-99.99,,,-99.99,,2013-01-28 09:00:00,
2013-01-28 04:22:00,23.0,15.0,30.42,East,94,0.0,0.0,74,-99.99,,,-99.99,,2013-01-28 09:22:00,
2013-01-28 04:32:00,23.0,15.0,30.42,East,94,0.0,0.0,74,-99.99,,,-99.99,,2013-01-28 09:32:00,
2013-01-28 04:42:00,23.0,15.0,30.42,East,94,0.0,0.0,74,-99.99,,,-99.99,,2013-01-28 09:42:00,
2013-01-28 04:52:00,23.0,15.0,30.42,East,94,0.0,0.0,74,-99.99,,,-99.99,,2013-01-28 09:52:00,
2013-01-28 05:00:00,24.0,16.0,30.39,NE,45,0.0,0.0,74,-99.99,,,-99.99,,2013-01-28 10:00:00,
2013-01-28 05:21:00,24.0,16.0,30.39,NE,45,0.0,0.0,74,-99.99,,,-99.99,,2013-01-28 10:21:00,
2013-01-28 05:32:00,24.0,16.0,30.39,NE,45,0.0,0.0,74,-99.99,,,-99.99,,2013-01-28 10:32:00,
2013-01-28 05:42:00,24.0,16.0,30.39,NE,45,0.0,0.0,74,-99.99,,,-99.99,,2013-01-28 10:42:00,
2013-01-28 05:52:00,24.0,16.0,30.39,NE,45,0.0,0.0,74,-99.99,,,-99.99,,2013-01-28 10:52:00,
2013-01-28 06:00:00,25.0,16.0,30.39,South,190,0.0,0.0,71,-99.99,,,-99.99,,2013-01-28 11:00:00,
2013-01-28 06:22:00,25.0,16.0,30.39,South,190,0.0,0.0,71,-99.99,,,-99.99,,2013-01-28 11:22:00,
2013-01-28 06:32:00,25.0,16.0,30.39,South,190,0.0,0.0,71,-99.99,,,-99.99,,2013-01-28 11:32:00,
2013-01-28 06:42:00,25.0,16.0,30.39,South,190,0.0,0.0,71,-99.99,,,-99.99,,2013-01-28 11:42:00,
2013-01-28 06:52:00,25.0,16.0,30.39,South,190,0.0,0.0,71,-99.99,,,-99.99,,2013-01-28 11:52:00,
2013-01-28 07:00:00,26.0,17.0,30.39,ENE,78,3.0,3.0,72,-99.99,,,-99.99,,2013-01-28 12:00:00,
2013-01-28 07:23:00,26.0,17.0,30.39,ENE,78,3.0,3.0,72,-99.99,,,-99.99,,2013-01-28 12:23:00,
2013-01-28 07:33:00,26.0,17.0,30.39,ENE,78,3.0,3.0,72,-99.99,,,-99.99,,2013-01-28 12:33:00,
2013-01-28 07:42:00,26.0,17.0,30.39,ENE,78,3.0,3.0,72,-99.99,,,-99.99,,2013-01-28 12:42:00,
2013-01-28 07:53:00,26.0,17.0,30.39,ENE,78,3.0,3.0,72,-99.99,,,-99.99,,2013-01-28 12:53:00,
2013-01-28 08:00:00,27.0,18.0,30.36,NNE,20,0.0,3.0,71,-99.99,,,-99.99,,2013-01-28 13:00:00,
2013-01-28 08:23:00,27.0,18.0,30.36,NNE,20,0.0,3.0,71,-99.99,,,-99.99,,2013-01-28 13:23:00,
2013-01-28 08:33:00,27.0,18.0,30.36,NNE,20,0.0,3.0,71,-99.99,,,-99.99,,2013-01-28 13:33:00,
2013-01-28 08:43:00,27.0,18.0,30.36,NNE,20,0.0,3.0,71,-99.99,,,-99.99,,2013-01-28 13:43:00,
2013-01-28 08:53:00,27.0,18.0,30.36,NNE,20,0.0,3.0,71,-99.99,,,-99.99,,2013-01-28 13:53:00,
2013-01-28 09:00:00,28.0,19.0,30.36,NE,38,0.0,0.0,71,-99.99,,,-99.99,,2013-01-28 14:00:00,
2013-01-28 09:23:00,28.0,19.0,30.36,NE,38,0.0,0.0,71,-99.99,,,-99.99,,2013-01-28 14:23:00,
2013-01-28 09:33:00,28.0,19.0,30.36,NE,38,0.0,0.0,71,-99.99,,,-99.99,,2013-01-28 14:33:00,
2013-01-28 09:43:00,28.0,19.0,30.36,NE,38,0.0,0.0,71,-99.99,,,-99.99,,2013-01-28 14:43:00,
2013-01-28 09:53:00,28.0,19.0,30.36,NE,38,0.0,0.0,71,-99.99,,,-99.99,,2013-01-28 14:53:00,
2013-01-28 10:00:00,29.0,24.0,30.36,South,176,1.0,9.0,85,-99.99,,,-99.99,,2013-01-28 15:00:00,
2013-01-28 10:24:00,29.0,24.0,30.36,South,176,1.0,9.0,85,-99.99,,,-99.99,,2013-01-28 15:24:00,
2013-01-28 10:33:00,29.0,24.0,30.36,South,176,1.0,9.0,85,-99.99,,,-99.99,,2013-01-28 15:33:00,
2013-01-28 10:43:00,29.0,24.0,30.36,South,176,1.0,9.0,85,-99.99,,,-99.99,,2013-01-28 15:43:00,
2013-01-28 10:53:00,29.0,24.0,30.36,South,176,1.0,9.0,85,-99.99,,,-99.99,,2013-01-28 15:53:00,
2013-01-28 11:00:00,30.0,27.0,30.30,SSW,195,4.0,9.0,87,-99.99,,,-99.99,,2013-01-28 16:00:00,
2013-01-28 11:22:00,30.0,27.0,30.30,SSW,195,4.0,9.0,87,-99.99,,,-99.99,,2013-01-28 16:22:00,
2013-01-28 11:33:00,30.0,27.0,30.30,SSW,195,4.0,9.0,87,-99.99,,,-99.99,,2013-01-28 16:33:00,
2013-01-28 11:43:00,30.0,27.0,30.30,SSW,195,4.0,9.0,87,-99.99,,,-99.99,,2013-01-28 16:43:00,
2013-01-28 11:53:00,30.0,27.0,30.30,SSW,195,4.0,9.0,87,-99.99,,,-99.99,,2013-01-28 16:53:00,
2013-01-28 12:00:00,31.0,28.0,30.24,South,179,2.0,12.0,87,-99.99,,,-99.99,,2013-01-28 17:00:00,
2013-01-28 12:23:00,31.0,28.0,30.24,South,179,2.0,12.0,87,-99.99,,,-99.99,,2013-01-28 17:23:00,
2013-01-28 12:33:00,31.0,28.0,30.24,South,179,2.0,12.0,87,-99.99,,,-99.99,,2013-01-28 17:33:00,
2013-01-28 12:42:00,31.0,28.0,30.24,South,179,2.0,12.0,87,-99.99,,,-99.99,,2013-01-28 17:42:00,
2013-01-28 12:53:00,31.0,28.0,30.24,South,179,2.0,12.0,87,-99.99,,,-99.99,,2013-01-28 17:53:00,
2013-01-28 13:00:00,32.0,29.0,30.18,South,190,11.0,12.0,89,-99.99,,,-99.99,,2013-01-28 18:00:00,
2013-01-28 13:23:00,32.0,29.0,30.18,South,190,11.0,12.0,89,-99.99,,,-99.99,,2013-01-28 18:23:00,
2013-01-28 13:33:00,32.0,29.0,30.18,South,190,11.0,12.0,89,-99.99,,,-99.99,,2013-01-28 18:33:00,
2013-01-28 13:43:00,32.0,29.0,30.18,South,190,11.0,12.0,89,-99.99,,,-99.99,,2013-01-28 18:43:00,
2013-01-28 13:53:00,32.0,29.0,30.18,South,190,11.0,12.0,89,-99.99,,,-99.99,,2013-01-28 18:53:00,
2013-01-28 14:00:00,33.0,30.0,30.12,South,175,5.0,14.0,89,-99.99,,,-99.99,,2013-01-28 19:00:00,
2013-01-28 14:22:00,33.0,30.0,30.12,South,175,5.0,14.0,89,-99.99,,,-99.99,,2013-01-28 19:22:00,
2013-01-28 14:33:00,33.0,30.0,30.12,South,175,5.0,14.0,89,-99.99,,,-99.99,,2013-01-28 19:33:00,
2013-01-28 14:43:00,33.0,30.0,30.12,South,175,5.0,14.0,89,-99.99,,,-99.99,,2013-01-28 19:43:00,
2013-01-28 14:53:00,33.0,30.0,30.12,South,175,5.0,14.0,89,-99.99,,,-99.99,,2013-01-28 19:53:00,
2013-01-28 15:00:00,33.0,30.0,30.09,WSW,247,2.0,11.0,91,-99.99,,,-99.99,,2013-01-28 20:00:00,
2013-01-28 15:22:00,33.0,30.0,30.09,WSW,247,2.0,11.0,91,-99.99,,,-99.99,,2013-01-28 20:22:00,
2013-01-28 15:33:00,33.0,30.0,30.09,WSW,247,2.0,11.0,91,-99.99,,,-99.99,,2013-01-28 20:33:00,
2013-01-28 15:43:00,33.0,30.0,30.09,WSW,247,2.0,11.0,91,-99.99,,,-99.99,,2013-01-28 20:43:00,
2013-01-28 15:53:00,33.0,30.0,30.09,WSW,247,2.0,11.0,91,-99.99,,,-99.99,,2013-01-28 20:53:00,
2013-01-28 16:00:00,32.0,31.0,30.06,SSW,198,2.0,10.0,93,-99.99,,,-99.99,,2013-01-28 21:00:00,
2013-01-28 16:23:00,32.0,31.0,30.06,SSW,198,2.0,10.0,93,-99.99,,,-99.99,,2013-01-28 21:23:00,
2013-01-28 16:33:00,32.0,31.0,30.06,SSW,198,2.0,10.0,93,-99.99,,,-99.99,,2013-01-28 21:33:00,
2013-01-28 16:43:00,32.0,31.0,30.06,SSW,198,2.0,10.0,93,-99.99,,,-99.99,,2013-01-28 21:43:00,
2013-01-28 16:53:00,32.0,31.0,30.06,SSW,198,2.0,10.0,93,-99.99,,,-99.99,,2013-01-28 21:53:00,
2013-01-28 17:00:00,33.0,31.0,30.06,SW,222,0.0,7.0,93,-99.99,,,-99.99,,2013-01-28 22:00:00,
2013-01-28 17:23:00,33.0,31.0,30.06,SW,222,0.0,7.0,93,-99.99,,,-99.99,,2013-01-28 22:23:00,
2013-01-28 17:33:00,33.0,31.0,30.06,SW,222,0.0,7.0,93,-99.99,,,-99.99,,2013-01-28 22:33:00,
2013-01-28 17:42:00,33.0,31.0,30.06,SW,222,0.0,7.0,93,-99.99,,,-99.99,,2013-01-28 22:42:00,
2013-01-28 17:52:00,33.0,31.0,30.06,SW,222,0.0,7.0,93,-99.99,,,-99.99,,2013-01-28 22:52:00,
2013-01-28 18:00:00,33.0,31.0,30.03,SSE,159,0.0,6.0,94,-99.99,,,-99.99,,2013-01-28 23:00:00,
2013-01-28 18:22:00,33.0,31.0,30.03,SSE,159,0.0,6.0,94,-99.99,,,-99.99,,2013-01-28 23:22:00,
2013-01-28 18:33:00,33.0,31.0,30.03,SSE,159,0.0,6.0,94,-99.99,,,-99.99,,2013-01-28 23:33:00,
2013-01-28 18:42:00,33.0,31.0,30.03,SSE,159,0.0,6.0,94,-99.99,,,-99.99,,2013-01-28 23:42:00,
2013-01-28 18:53:00,33.0,31.0,30.03,SSE,159,0.0,6.0,94,-99.99,,,-99.99,,2013-01-28 23:53:00,
2013-01-28 19:00:00,33.0,32.0,30.03,SW,230,2.0,8.0,94,-99.99,,,-99.99,,2013-01-29 00:00:00,
2013-01-28 19:22:00,33.0,32.0,30.03,SW,230,2.0,8.0,94,-99.99,,,-99.99,,2013-01-29 00:22:00,
2013-01-28 19:33:00,33.0,32.0,30.03,SW,230,2.0,8.0,94,-99.99,,,-99.99,,2013-01-29 00:33:00,
2013-01-28 19:42:00,33.0,32.0,30.03,SW,230,2.0,8.0,94,-99.99,,,-99.99,,2013-01-29 00:42:00,
2013-01-28 19:52:00,33.0,32.0,30.03,SW,230,2.0,8.0,94,-99.99,,,-99.99,,2013-01-29 00:52:00,
2013-01-28 20:00:00,33.0,32.0,30.00,South,191,2.0,7.0,94,-99.99,,,-99.99,,2013-01-29 01:00:00,
2013-01-28 20:23:00,33.0,32.0,30.00,South,191,2.0,7.0,94,-99.99,,,-99.99,,2013-01-29 01:23:00,
2013-01-28 20:32:00,33.0,32.0,30.00,South,191,2.0,7.0,94,-99.99,,,-99.99,,2013-01-29 01:32:00,
2013-01-28 20:42:00,33.0,32.0,30.00,South,191,2.0,7.0,94,-99.99,,,-99.99,,2013-01-29 01:42:00,
2013-01-28 20:53:00,33.0,32.0,30.00,South,191,2.0,7.0,94,-99.99,,,-99.99,,2013-01-29 01:53:00,
2013-01-28 21:00:00,33.0,32.0,30.00,SSW,201,4.0,6.0,94,-99.99,,,-99.99,,2013-01-29 02:00:00,
2013-01-28 21:22:00,33.0,32.0,30.00,SSW,201,4.0,6.0,94,-99.99,,,-99.99,,2013-01-29 02:22:00,
2013-01-28 21:33:00,33.0,32.0,30.00,SSW,201,4.0,6.0,94,-99.99,,,-99.99,,2013-01-29 02:33:00,
2013-01-28 21:42:00,33.0,32.0,30.00,SSW,201,4.0,6.0,94,-99.99,,,-99.99,,2013-01-29 02:42:00,
2013-01-28 21:53:00,33.0,32.0,30.00,SSW,201,4.0,6.0,94,-99.99,,,-99.99,,2013-01-29 02:53:00,
2013-01-28 22:00:00,34.0,32.0,29.97,SSW,208,0.0,6.0,94,-99.99,,,-99.99,,2013-01-29 03:00:00,
2013-01-28 22:22:00,34.0,32.0,29.97,SSW,208,0.0,6.0,94,-99.99,,,-99.99,,2013-01-29 03:22:00,
2013-01-28 22:32:00,34.0,32.0,29.97,SSW,208,0.0,6.0,94,-99.99,,,-99.99,,2013-01-29 03:32:00,
2013-01-28 22:42:00,34.0,32.0,29.97,SSW,208,0.0,6.0,94,-99.99,,,-99.99,,2013-01-29 03:42:00,
2013-01-28 22:53:00,34.0,32.0,29.97,SSW,208,0.0,6.0,94,-99.99,,,-99.99,,2013-01-29 03:53:00,
2013-01-28 23:00:00,33.0,32.0,29.97,SSW,212,0.0,4.0,94,-99.99,,,-99.99,,2013-01-29 04:00:00,
2013-01-28 23:22:00,33.0,32.0,29.97,SSW,212,0.0,4.0,94,-99.99,,,-99.99,,2013-01-29 04:22:00,
2013-01-28 23:32:00,33.0,32.0,29.97,SSW,212,0.0,4.0,94,-99.99,,,-99.99,,2013-01-29 04:32:00,
2013-01-28 23:42:00,33.0,32.0,29.97,SSW,212,0.0,4.0,94,-99.99,,,-99.99,,2013-01-29 04:42:00,
2013-01-28 23:52:00,33.0,32.0,29.97,SSW,212,0.0,4.0,94,-99.99,,,-99.99,,2013-01-29 04:52:00,